Fort Dix, NJ

2:08 AM EST on February 14, 2016 (GMT -0500)
McGuire Air Force Base

Weather History for KWRI - September, 2012

Change the Weather History Date:

Saturday, September 15, 2012

  Actual Average Record
Temperature  
Mean Temperature 64 °F -  
Max Temperature 73 °F 76 °F 87 °F (1998)
Min Temperature 56 °F 56 °F 46 °F (2013)
Growing Degree Days 14 (Base 50)    
Moisture  
Dew Point 53 °F    
Average Humidity 68    
Maximum Humidity 94    
Minimum Humidity 43    
Precipitation  
Precipitation 0.00 in - - ()
Sea Level Pressure  
Sea Level Pressure 30.10 in    
Wind  
Wind Speed 6 mph (NW)    
Max Wind Speed 15 mph    
Max Gust Speed 23 mph    
Visibility 10 miles    
Events      
Averages and records for this station are not official NWS values.
T = Trace of Precipitation, MM = Missing Value Source: NWS Daily Summary

Daily Weather History Graph

Daily Weather History Graph

Search for Another Location

Airport or City:

Trip Planner

Search our weather history database for the weather conditions in past years. The results will help you decide how hot, cold, wet, or windy it might be!

Date:

Astronomy

Sep. 15, 2012 Rise Set
Actual Time 6:39 AM EDT 7:06 PM EDT
Civil Twilight 6:12 AM EDT 7:33 PM EDT
Nautical Twilight 5:40 AM EDT 8:05 PM EDT
Astronomical Twilight 5:07 AM EDT 8:38 PM EDT
Moon 6:07 AM EDT (9/15) 6:35 PM EDT (9/15)
Length of Visible Light 13h 20m
Length of Day
12h 26m
Waning Crescent, 0% of the Moon is Illuminated
Sep 15
Waning Crescent
Sep 15
New
Sep 22
First Quarter
Sep 29
Full
Oct 8
Last Quarter

Hourly Weather History & Observations

Time (EDT) Temp. Dew Point Humidity Pressure Visibility Wind Dir Wind Speed Gust Speed Precip Events Conditions
12:55 AM 61.9 °F 59.5 °F 92% 30.09 in 10.0 mi Calm Calm - N/A   Clear
1:55 AM 62.4 °F 60.3 °F 93% 30.09 in 10.0 mi WSW 3.5 mph - N/A   Clear
2:55 AM 63.1 °F 60.8 °F 92% 30.07 in 10.0 mi Variable 3.5 mph - N/A   Scattered Clouds
3:17 AM 62.6 °F 60.8 °F 94% 30.07 in 10.0 mi SW 3.5 mph - N/A   Mostly Cloudy
3:42 AM 64.4 °F 60.8 °F 88% 30.07 in 10.0 mi WNW 5.8 mph - N/A   Mostly Cloudy
3:55 AM 63.7 °F 61.0 °F 91% 30.07 in 10.0 mi NW 4.6 mph - N/A   Scattered Clouds
4:55 AM 63.7 °F 59.4 °F 86% 30.07 in 10.0 mi NNW 6.9 mph - N/A   Mostly Cloudy
5:55 AM 62.2 °F 56.5 °F 81% 30.09 in 10.0 mi NNW 9.2 mph - N/A   Clear
6:55 AM 60.1 °F 53.2 °F 78% 30.13 in 8.0 mi NW 8.1 mph - N/A   Clear
7:55 AM 60.6 °F 51.6 °F 72% 30.14 in 9.0 mi NNW 11.5 mph - N/A   Clear
8:55 AM 63.0 °F 50.5 °F 64% 30.14 in 10.0 mi NNW 15.0 mph 19.6 mph N/A   Clear
9:55 AM 65.7 °F 50.5 °F 58% 30.14 in 10.0 mi NNW 12.7 mph 18.4 mph N/A   Clear
10:55 AM 68.2 °F 50.4 °F 53% 30.14 in 10.0 mi North 10.4 mph - N/A   Clear
11:55 AM 70.7 °F 49.5 °F 47% 30.12 in 10.0 mi NNW 10.4 mph 20.7 mph N/A   Clear
12:55 PM 71.6 °F 50.7 °F 48% 30.12 in 10.0 mi NNW 15.0 mph 23.0 mph N/A   Clear
1:55 PM 71.4 °F 50.5 °F 48% 30.10 in 9.0 mi NW 9.2 mph - N/A   Clear
2:55 PM 73.2 °F 49.5 °F 43% 30.08 in 10.0 mi WNW 12.7 mph 17.3 mph N/A   Scattered Clouds
3:55 PM 73.4 °F 50.2 °F 44% 30.07 in 10.0 mi WNW 12.7 mph 21.9 mph N/A   Clear
4:55 PM 72.9 °F 49.3 °F 43% 30.07 in 10.0 mi NNW 13.8 mph - N/A   Clear
5:55 PM 70.9 °F 48.0 °F 44% 30.08 in 10.0 mi NW 10.4 mph - N/A   Clear
6:55 PM 65.7 °F 48.6 °F 54% 30.09 in 10.0 mi NNW 6.9 mph - N/A   Clear
7:55 PM 62.1 °F 48.0 °F 60% 30.09 in 10.0 mi NNW 4.6 mph - N/A   Clear
8:55 PM 60.4 °F 48.9 °F 66% 30.10 in 10.0 mi Calm Calm - N/A   Clear
9:55 PM 56.8 °F 49.8 °F 77% 30.12 in 10.0 mi Calm Calm - N/A   Clear
10:55 PM 56.1 °F 50.0 °F 80% 30.12 in 10.0 mi Calm Calm - N/A   Clear
11:55 PM 57.2 °F 48.6 °F 73% 30.12 in 10.0 mi Calm Calm - N/A   Clear